LPMA

Madeira/Funchal Airport

Airport
ICAO code
LPMA
IATA Code
FNC
Summary
ICAO Region
EUR
ICAO Territory
Location

Santa Catarina, Região Autónoma da Madeira

Serving
Funchal
Elevation
192 ft
Coordinates
32° 41' 52" N , 16° 46' 28" W
KCC
Airport CFIT
Runway Visual Perspective
Airport RE
Crosswind Landings
Airport WX
Low Level Turbulence
Metar
Observation
LPMA 061600Z 36019KT 320V040 9999 SCT016 17/09 Q1023
Station
Aeroporto Da Madeira
Date/Time
2023-02-06 16:00:00
Wind direction
360°
Wind speed
19 kts
Lowest cloud amount
scattered clouds
Temperature
17°C
Dew point
9°C
Humidity
59%
QNH
1023 hPa
Weather condition
n/a

Cristiano Ronaldo International Airport, Madeira, commonly known as Madeira Airport or Funchal Airport , is an international airport in the civil parish of Santa Cruz in the Portuguese archipelago and autonomous region of Madeira.

Climatology

Temperate mediterranean climate (Köppen climate classification Csb)

Runways

Designator Length Width Surface Rops
5/23 2777 45 ASP Yes/Yes

Airport map

Aerial View

SKYbrary Partners:

Safety knowledge contributed by: